Regional Weather Roundup
Issued by NWS

Home | Current Version | Previous Version | Graphics & Text | Print | Product List | Glossary On
Versions: 1 2 3 4 5 6 7 8 9 10 11 12 13 14 15 16 17 18 19 20 21 22 23 24 25 26 27 28 29 30 31 32 33 34 35 36 37 38 39 40 41 42 43 44 45 46 47 48 49 50
000
ASUS45 KSLC 131110
RWRUT

UTAH REGIONAL WEATHER ROUNDUP
NATIONAL WEATHER SERVICE SALT LAKE CITY UT
500 AM MDT SUN JUL 13 2014

UTZ001>011-023>025-131200-

NORTHERN UTAH

CITY           SKY/WX    TMP DP  RH WIND       PRES   REMARKS
HILL AFB       CLEAR     72  52  48 E20G26    30.20S
LOGAN          NOT AVBL
OGDEN          NOT AVBL
PROVO AIRPORT  NOT AVBL
SALT LAKE CITY CLEAR     72  52  49 NW3       30.15R
VERNAL         NOT AVBL
WENDOVER       NOT AVBL
HEBER CITY     CLEAR     57  52  82 CALM      30.32R
WEST JORDAN    CLEAR     73  55  53 CALM      30.20R

$$

UTZ012>022-026-027-131200-

SOUTHERN UTAH

CITY           SKY/WX    TMP DP  RH WIND       PRES   REMARKS
CEDAR CITY     NOT AVBL
MILFORD        NOT AVBL
MOAB/CYNLANDS  NOT AVBL
PRICE          NOT AVBL
ST GEORGE      NOT AVBL

$$

REGIONAL REPORTS     COLORADO/ARIZONA

CITY           SKY/WX    TMP DP  RH WIND       PRES   REMARKS
CRAIG, CO      CLEAR     48  32  53 CALM      30.35R
GRAND JUNCTION CLEAR     72  50  45 SE9       30.20R
RIFLE          CLEAR     62  54  74 SE3       30.28R
MONTROSE       MOCLDY    63  48  58 S3        30.30R
CORTEZ         CLEAR     59  53  80 CALM      30.29R
PAGE, AZ       CLEAR     81  51  35 S9        30.12R
GRAND CANYON   PTCLDY    55  50  83 CALM      30.32S
KINGMAN        NOT AVBL
FLAGSTAFF      MOCLDY    58  51  78 N5        30.34S

$$

REGIONAL REPORTS    NEVADA/IDAHO/WYOMING

CITY           SKY/WX    TMP DP  RH WIND       PRES   REMARKS
LAS VEGAS, NV  MOCLDY    87  39  18 S15       29.88S
ELY            NOT AVBL
ELKO           CLEAR     61  47  59 CALM      30.24S
POCATELLO, ID  NOT AVBL
EVANSTON, WY   NOT AVBL
ROCK SPRINGS   NOT AVBL

$$


USA.gov is the U.S. government's official web portal to all federal, state and local government web resources and services.